Terminal Aerodrome Forecast
Issued by NWS

Home | Current Version | Previous Version | Text Only | Print | Product List | Glossary On
Versions: 1 2 3 4 5 6 7 8 9 10 11 12 13
000
FTUS45 KRIW 172300
TAFWRL
TAF
KWRL 172331Z 1800/1824 15008KT P6SM FEW150 SCT250
     FM181100 VRB05KT P6SM BKN110=

USA.gov is the U.S. government's official web portal to all federal, state and local government web resources and services.